Regional Weather Roundup
Issued by NWS

Home | Current Version | Previous Version | Text Only | Print | Product List | Glossary Off
Versions: 1 2 3 4 5 6 7 8 9 10 11 12 13 14 15 16 17 18 19 20 21 22 23 24 25 26

000
ASUS45 KBOU 161610
RWRCO

WEATHER ROUNDUP FOR COLORADO
NATIONAL WEATHER SERVICE DENVER/BOULDER CO
900 AM MST TUE JAN 16 2018

NOTE: "FAIR" INDICATES FEW OR NO CLOUDS BELOW 12000 FEET WITH NO
SIGNIFICANT WEATHER AND/OR OBSTRUCTIONS TO VISIBILITY.

COZ001>005-013-030-031-161700-
...NORTHWEST COLORADO...

CITY           SKY/WX    TMP DP  RH WIND       PRES   REMARKS
CRAIG          FAIR       1  -4  79 CALM      30.46R
HAYDEN         FAIR       4  -5  66 E13       30.44R WCI -13
MEEKER         FAIR      12   4  70 CALM      30.44R
RABBIT EARS PA FAIR      19  -6  32 CALM      30.31R
STEAMBOAT SPGS FAIR      -2  -6  82 CALM      30.43R
WALDEN         FAIR      -2 -13  60 CALM      30.41S
$$

COZ006>008-011-161700-
...WEST CENTRAL VALLEYS...

CITY           SKY/WX    TMP DP  RH WIND       PRES   REMARKS
GRAND JUNCTION FAIR      26  14  60 S6        30.44R WCI  19
MONTROSE       FAIR      21  14  74 SE6       30.46R WCI  13
EAGLE          FAIR       8   3  80 SE5       30.52R WCI   0
RIFLE          FAIR      20  14  77 CALM      30.46F
DELTA          FAIR      23  15  74 CALM      30.46S
NUCLA          FAIR      25  14  63 SE9       30.43S WCI  15
$$

COZ017>023-064>068-161700-
...SOUTHWEST COLORADO...

CITY           SKY/WX    TMP DP  RH WIND       PRES   REMARKS
DURANGO        FAIR      23  19  85 E5        30.38R WCI  17
CORTEZ         FAIR      23  18  81 CALM      30.38R
PAGOSA SPRINGS FAIR      24  14  65 CALM      30.37R
TELLURIDE      FAIR      21  -7  28 SE3       30.35R
WOLF CREEK PAS FAIR      19 -29  10 CALM      30.38R
$$

COZ009-010-012-014-032>034-037-058>063-161700-
...CENTRAL COLORADO...

CITY           SKY/WX    TMP DP  RH WIND       PRES   REMARKS
ASPEN          FAIR      12   5  73 CALM      30.37S
BUENA VISTA    FAIR      11   4  73 W3        30.40S
COPPER MTN     NOT AVBL
BERTHOUD PASS  FAIR       9  -4  56 NW6       30.27R WCI  -1
COTTONWOOD PAS NOT AVBL
GUNNISON       CLOUDY    10   3  73 N6        30.44R WCI   0
KREMMLING      NOT AVBL
LEADVILLE      FAIR       9 -20  25 NE5       30.32S WCI   1
SALIDA         FAIR      14   7  73 CALM      30.49R
SUNLIGHT       FAIR      18 -22  16 CALM      30.37R
WILKERSON PASS FAIR      18 -45   4 NE3       30.32R
$$

COZ069>075-161700-
...SAN LUIS VALLEY/SANGRE DE CRISTO MOUNTAINS...

CITY           SKY/WX    TMP DP  RH WIND       PRES   REMARKS
ALAMOSA        CLOUDY    19  14  81 NW7       30.42R WCI  10
DEL NORTE      CLOUDY    15   5  64 W7        30.42R WCI   5
LA VETA PASS   FOG       16  12  86 MISG        N/A  VSB 1
SAGUACHE       CLOUDY    19  14  79 NW6       30.43R WCI  11
$$

COZ035-036-038>040-161700-
...NORTHERN COLORADO FRONT RANGE...

CITY           SKY/WX    TMP DP  RH WIND       PRES   REMARKS
DENVER INTL AP FAIR      10   4  76 S5        30.43S WCI   2
DMNS CITY PARK NOT AVBL
AURORA         MOSUNNY   15   9  75 S8        30.42S WCI   4
FRONT RANGE AP MOSUNNY   12   5  73 S3        30.43S
ERIE MUNI ARPT FAIR       7   3  84 CALM      30.51S
BOULDER MUN AP FAIR       9   3  78 CALM      30.44S
CENTENNIAL     FAIR      16  10  77 S5        30.41R WCI   9
BROOMFIELD     MOSUNNY   10   5  79 CALM      30.42S
FORT COLLINS   FAIR       3  -2  79 N5        30.47F WCI  -6
LONGMONT       FAIR       8   2  75 CALM      30.48F
$$

COZ041-046-047-076>085-087-088-161700-
...PIKES PEAK/PALMER DIVIDE AND SOUTHERN FOOTHILLS...

CITY           SKY/WX    TMP DP  RH WIND       PRES   REMARKS
COLO. SPRINGS  FAIR      11   6  81 CALM      30.43R
A. F. ACADEMY  FAIR       9   5  85 CALM      30.40R
SCHRIEVER AFB  FAIR       9   5  82 CALM      30.44R
CHEYENNE MTN   FAIR      21  11  64 SE5       30.33S WCI  15
ELLICOTT         N/A    N/A N/A N/A NW5         N/A
FALCON         FAIR      17   7  64 CALM      30.40R
FORT CARSON    FAIR      11   3  70 CALM      30.44S
LIMON          FAIR       7  -1  70 CALM      30.47S
MONUMENT HILL  FAIR      10   1  67 SW6       30.39R WCI   1
CANON CITY     FAIR      12   5  73 CALM      30.48S
WALSENBURG     FAIR      14  10  85 CALM      30.45S
TRINIDAD       FAIR      10   5  80 W5        30.48R WCI   2
$$

COZ042>045-048>051-090-091-161700-
...NORTHEAST COLORADO...

CITY           SKY/WX    TMP DP  RH WIND       PRES   REMARKS
GREELEY ARPT   FAIR       4  -4  69 W3        30.51F
AKRON          FAIR       6  -1  73 SW9       30.49S WCI  -8
BURLINGTON     FAIR       7   1  76 NW6       30.56S WCI  -3
WRAY           FAIR       3  -4  72 CALM      30.61S
YUMA           FAIR       7   0  72 W6        30.55R WCI  -3
STERLING       FAIR       1  -4  78 S7        30.55S WCI -11
HOLYOKE        FAIR       5  -2  72 CALM      30.59R
FORT MORGAN    FAIR       1  -5  73 W9        30.51F WCI -14
$$

COZ086-089-092>099-161700-
...SOUTHEAST COLORADO...

CITY           SKY/WX    TMP DP  RH WIND       PRES   REMARKS
PUEBLO         FAIR      11   2  67 CALM      30.54S
LA JUNTA       FAIR      10   1  67 CALM      30.58S
LAMAR          FAIR       7  -2  66 CALM      30.62S
SPRINGFIELD      N/A     12   3  67 CALM      30.57R
$$




USA.gov is the U.S. government's official web portal to all federal, state and local government web resources and services.